• In Österreich
  • Länderverzeichnis
  • Für 7 Tage
  • Wassertemperatur
  • Satellitenkarten
  • Wetterkarte
  • News
  • Widgets
  • user-avatar
    Anmelden

    Stündliche Wetter Checheleve

    Heute, 15 August, Mittwoch

    Zeit Temperatur Niederschläge Wind Luftdruck Luftfeuchtigkeit
    00:00 +25°C° 0 mm 2 m/S 755 mmHg 44%
    01:00 +25°C° 0 mm 2 m/S 755 mmHg 45%
    02:00 +24°C° 0 mm 1 m/S 755 mmHg 47%
    03:00 +24°C° 0 mm 2 m/S 755 mmHg 48%
    04:00 +23°C° 0 mm 2 m/S 755 mmHg 49%
    05:00 +23°C° 0 mm 2 m/S 755 mmHg 50%
    06:00 +25°C° 0 mm 2 m/S 755 mmHg 47%
    07:00 +27°C° 0 mm 2 m/S 755 mmHg 43%
    08:00 +29°C° 0 mm 2 m/S 755 mmHg 38%
    09:00 +31°C° 0 mm 2 m/S 755 mmHg 35%
    10:00 +32°C° 0 mm 2 m/S 755 mmHg 32%
    11:00 +34°C° 0 mm 2 m/S 755 mmHg 29%
    12:00 +35°C° 0 mm 3 m/S 755 mmHg 28%
    13:00 +35°C° 0 mm 3 m/S 755 mmHg 27%
    14:00 +35°C° 0 mm 3 m/S 755 mmHg 27%
    15:00 +35°C° 0 mm 2 m/S 755 mmHg 27%
    16:00 +35°C° 0 mm 2 m/S 755 mmHg 28%
    17:00 +35°C° 0 mm 2 m/S 755 mmHg 29%
    18:00 +32°C° 0 mm 2 m/S 755 mmHg 33%
    19:00 +30°C° 0 mm 2 m/S 755 mmHg 36%
    20:00 +28°C° 0 mm 2 m/S 755 mmHg 39%
    21:00 +27°C° 0 mm 2 m/S 755 mmHg 41%
    22:00 +26°C° 0 mm 2 m/S 755 mmHg 42%
    23:00 +26°C° 0 mm 2 m/S 755 mmHg 44%

    Morgen, 16 August, Donnerstag

    Zeit Temperatur Niederschläge Wind Luftdruck Luftfeuchtigkeit
    00:00 +25°C° 0 mm 2 m/S 755 mmHg 46%
    01:00 +25°C° 0 mm 2 m/S 755 mmHg 47%
    02:00 +24°C° 0 mm 2 m/S 755 mmHg 49%
    03:00 +24°C° 0 mm 1 m/S 755 mmHg 50%
    04:00 +24°C° 0 mm 1 m/S 755 mmHg 51%
    05:00 +23°C° 0 mm 1 m/S 755 mmHg 53%
    06:00 +25°C° 0 mm 1 m/S 755 mmHg 48%
    07:00 +27°C° 0 mm 1 m/S 755 mmHg 44%
    08:00 +29°C° 0 mm 1 m/S 755 mmHg 40%
    09:00 +31°C° 0 mm 1 m/S 755 mmHg 36%
    10:00 +33°C° 0 mm 1 m/S 755 mmHg 32%
    11:00 +34°C° 0 mm 1 m/S 755 mmHg 28%
    12:00 +35°C° 0 mm 1 m/S 755 mmHg 26%
    13:00 +35°C° 0 mm 1 m/S 755 mmHg 25%
    14:00 +36°C° 0 mm 2 m/S 754 mmHg 23%
    15:00 +35°C° 0 mm 2 m/S 754 mmHg 25%
    16:00 +35°C° 0 mm 2 m/S 754 mmHg 28%
    17:00 +34°C° 0 mm 3 m/S 754 mmHg 30%
    18:00 +31°C° 0 mm 3 m/S 754 mmHg 34%
    19:00 +30°C° 0 mm 3 m/S 755 mmHg 37%
    20:00 +28°C° 0 mm 3 m/S 755 mmHg 41%
    21:00 +27°C° 0 mm 3 m/S 755 mmHg 45%
    22:00 +27°C° 0 mm 3 m/S 755 mmHg 50%
    23:00 +26°C° 0 mm 3 m/S 755 mmHg 54%

    übermorgen, 17 August, Freitag

    Zeit Temperatur Niederschläge Wind Luftdruck Luftfeuchtigkeit
    00:00 +25°C° 0 mm 3 m/S 755 mmHg 57%
    01:00 +25°C° 0 mm 3 m/S 755 mmHg 60%
    02:00 +24°C° 0 mm 3 m/S 755 mmHg 63%
    03:00 +24°C° 0 mm 3 m/S 755 mmHg 66%
    04:00 +22°C° 0 mm 3 m/S 755 mmHg 68%
    05:00 +22°C° 0 mm 3 m/S 755 mmHg 71%
    06:00 +24°C° 0 mm 3 m/S 755 mmHg 67%
    07:00 +26°C° 0 mm 3 m/S 755 mmHg 62%
    08:00 +27°C° 0 mm 3 m/S 756 mmHg 58%
    09:00 +29°C° 0 mm 3 m/S 756 mmHg 51%
    10:00 +32°C° 0 mm 4 m/S 755 mmHg 44%
    11:00 +34°C° 0 mm 4 m/S 755 mmHg 36%
    12:00 +35°C° 0 mm 3 m/S 755 mmHg 33%
    13:00 +35°C° 0 mm 3 m/S 755 mmHg 30%
    14:00 +35°C° 0 mm 3 m/S 755 mmHg 27%
    15:00 +35°C° 0 mm 3 m/S 755 mmHg 30%
    16:00 +34°C° 0 mm 3 m/S 755 mmHg 32%
    17:00 +34°C° 0 mm 3 m/S 754 mmHg 34%
    18:00 +31°C° 0 mm 3 m/S 755 mmHg 40%
    19:00 +29°C° 0 mm 4 m/S 755 mmHg 45%
    20:00 +27°C° 0 mm 4 m/S 755 mmHg 51%
    21:00 +27°C° 0 mm 4 m/S 755 mmHg 54%
    22:00 +26°C° 0 mm 3 m/S 755 mmHg 57%
    23:00 +25°C° 0 mm 3 m/S 755 mmHg 59%

    18 August, Samstag

    Zeit Temperatur Niederschläge Wind Luftdruck Luftfeuchtigkeit
    00:00 +25°C° 0 mm 3 m/S 755 mmHg 61%
    01:00 +24°C° 0 mm 3 m/S 755 mmHg 63%
    02:00 +24°C° 0 mm 3 m/S 755 mmHg 65%
    03:00 +22°C° 0 mm 3 m/S 755 mmHg 67%
    04:00 +22°C° 0 mm 3 m/S 755 mmHg 69%
    05:00 +21°C° 0 mm 2 m/S 755 mmHg 71%
    06:00 +24°C° 0 mm 2 m/S 756 mmHg 64%
    07:00 +26°C° 0 mm 2 m/S 756 mmHg 58%
    08:00 +28°C° 0 mm 2 m/S 756 mmHg 51%
    09:00 +30°C° 0 mm 2 m/S 756 mmHg 45%
    10:00 +31°C° 0 mm 2 m/S 756 mmHg 40%
    11:00 +34°C° 0 mm 2 m/S 756 mmHg 34%
    12:00 +34°C° 0 mm 2 m/S 756 mmHg 32%
    13:00 +35°C° 0 mm 2 m/S 756 mmHg 30%
    14:00 +35°C° 0 mm 2 m/S 755 mmHg 27%
    15:00 +35°C° 0 mm 2 m/S 755 mmHg 29%
    16:00 +34°C° 0 mm 2 m/S 755 mmHg 31%
    17:00 +34°C° 0 mm 2 m/S 755 mmHg 32%
    18:00 +31°C° 0 mm 2 m/S 756 mmHg 36%
    19:00 +29°C° 0 mm 2 m/S 756 mmHg 39%
    20:00 +28°C° 0 mm 2 m/S 756 mmHg 43%
    21:00 +27°C° 0 mm 2 m/S 756 mmHg 46%
    22:00 +26°C° 0 mm 2 m/S 756 mmHg 48%
    23:00 +25°C° 0 mm 2 m/S 756 mmHg 51%

    19 August, Sonntag

    Zeit Temperatur Niederschläge Wind Luftdruck Luftfeuchtigkeit
    00:00 +25°C° 0 mm 2 m/S 756 mmHg 55%
    01:00 +24°C° 0 mm 2 m/S 757 mmHg 58%
    02:00 +23°C° 0 mm 2 m/S 757 mmHg 62%
    03:00 +23°C° 0,2 mm 2 m/S 757 mmHg 64%
    04:00 +21°C° 0,2 mm 2 m/S 757 mmHg 67%
    05:00 +21°C° 0,2 mm 2 m/S 757 mmHg 70%
    06:00 +23°C° 0,1 mm 2 m/S 757 mmHg 65%
    07:00 +25°C° 0,1 mm 2 m/S 757 mmHg 60%
    08:00 +27°C° 0,1 mm 2 m/S 757 mmHg 55%
    09:00 +28°C° 0 mm 2 m/S 757 mmHg 50%
    10:00 +30°C° 0 mm 2 m/S 757 mmHg 45%
    11:00 +32°C° 0 mm 2 m/S 756 mmHg 40%
    12:00 +32°C° 0 mm 2 m/S 756 mmHg 37%
    13:00 +33°C° 0 mm 1 m/S 756 mmHg 35%
    14:00 +33°C° 0 mm 1 m/S 756 mmHg 33%
    15:00 +33°C° 0 mm 1 m/S 755 mmHg 34%
    16:00 +32°C° 0 mm 1 m/S 755 mmHg 35%
    17:00 +32°C° 0 mm 1 m/S 755 mmHg 37%
    18:00 +30°C° 0,2 mm 2 m/S 755 mmHg 42%
    19:00 +28°C° 0,2 mm 2 m/S 755 mmHg 46%
    20:00 +27°C° 0,2 mm 2 m/S 756 mmHg 51%
    21:00 +25°C° 0,3 mm 2 m/S 756 mmHg 54%
    22:00 +24°C° 0,3 mm 2 m/S 756 mmHg 56%
    23:00 +23°C° 0,3 mm 2 m/S 756 mmHg 59%

    20 August, Montag

    Zeit Temperatur Niederschläge Wind Luftdruck Luftfeuchtigkeit
    00:00 +23°C° 0,1 mm 2 m/S 756 mmHg 58%
    01:00 +21°C° 0,1 mm 2 m/S 756 mmHg 58%
    02:00 +21°C° 0,1 mm 2 m/S 756 mmHg 57%
    03:00 +22°C° 0,1 mm 1 m/S 756 mmHg 57%
    04:00 +21°C° 0,1 mm 1 m/S 756 mmHg 57%
    05:00 +21°C° 0,1 mm 1 m/S 756 mmHg 57%
    06:00 +23°C° 0 mm 1 m/S 756 mmHg 53%
    07:00 +24°C° 0 mm 1 m/S 756 mmHg 48%
    08:00 +26°C° 0 mm 1 m/S 756 mmHg 44%
    09:00 +28°C° 0 mm 1 m/S 756 mmHg 41%
    10:00 +29°C° 0 mm 1 m/S 756 mmHg 39%
    11:00 +31°C° 0 mm 1 m/S 756 mmHg 36%
    12:00 +31°C° 0 mm 1 m/S 756 mmHg 36%
    13:00 +32°C° 0 mm 1 m/S 756 mmHg 36%
    14:00 +32°C° 0 mm 1 m/S 756 mmHg 35%
    15:00 +32°C° 0 mm 2 m/S 756 mmHg 38%
    16:00 +31°C° 0 mm 2 m/S 756 mmHg 41%
    17:00 +31°C° 0 mm 3 m/S 756 mmHg 43%
    18:00 +29°C° 0 mm 3 m/S 756 mmHg 50%
    19:00 +27°C° 0 mm 3 m/S 756 mmHg 57%
    20:00 +26°C° 0 mm 3 m/S 756 mmHg 63%
    21:00 +25°C° 0 mm 3 m/S 757 mmHg 67%
    22:00 +24°C° 0 mm 3 m/S 757 mmHg 71%
    23:00 +22°C° 0 mm 3 m/S 757 mmHg 74%
    Mehr zeigen